Grizzly Air Cargo 5149


PASY
Eareckson Air Station
Shemya, Alaska, US
PANC
Ted Stevens Anchorage International Airport
Anchorage, Alaska, US

Activity Log

Date Flight Route Aircraft Duration
08/27/2019 GRZ523 SYA G8 ADK G1 ELF G12 HBT G2 RWO ODK AMOTT4 B722 3h 16m
06/28/2019 GRZ523 SYA G8 ADK G1 ELF G12 HBT G2 RWO ODK AMOTT4 B722 3h 06m
06/28/2019 GRZ523 SYA SPY J619 EHM R591 HAMND NEELL6 B722 2h 48m
03/28/2019 GRZ523 SYA SPY R591 EHM J996R AMOTT ANC B722 3h 20m
03/21/2019 GRZ523 SYA G8 ADK G1 ELF G12 HBT G2 RWO ODK AMOTT4 B722 3h 27m

Route Details

Aircraft Information
Primary: Boeing 727-200F
Backup: Boeing 737-800BCF
Route Data
Distance: 1264nm
Sched. Duration: 4h 00m
Avg. Duration: 3h 03m (-96m)
Times Flown: 5
Recm'd Route: SYA G8 ADK G1 ELF G12 HBT G2 RWO ODK AMOTT4
Planned Altitude: 35,000ft
Origin Wx: PASY 221955Z 36030G40KT 280V030 5SM -RA BR BKN018 BKN025 OVC032 06/04 A2959 RMK PK WND 36047/1921 BKN018 V SCT SLP024 P0000 T00610039 $
Dest. Wx: PANC 221953Z 36004KT 10SM CLR 01/M08 A3044 RMK AO2 SLP309 T00061083
Notes:

Financial History
Total Freight: 200,099lbs
Average Load: 40,020lbs/flt
Fuel Used: 125,856lbs
Avg. Fuel Used: 25,171lbs/flt
Fuel Expense: $100,685
Avg. Fuel Expense: $20,137
Avg. Fuel Cost: $0.80/lbs
Total Gross Income: $296,147
Pilot Pay: $1,145
Total Expenses: $32,244
Total Revenue: $159,398
Average Revenue: $59,229.30